sat.trackr.live / text

‹ back to catalog

QIANFAN-188

NORAD 69406 · 2026-125F

PAYLOAD ACTIVE UNKNOWN

§ Identity

Operator
Country
PRC
Launch date
2026-06-05
Launch site
WSC
Launch vehicle
Mass (kg)
RCS (m²)

External: N2YO · Heavens-Above · Gunter

§ Orbital elements

Epoch: 2026-09-20T04:17:55.624992Z

Period
106.59 min
Inclination
88.9883°
Eccentricity
0.0002077
Mean motion
13.51029426 rev/d
Perigee alt
1,066.9 km
Apogee alt
1,070.0 km
Semi-major
7,446.6 km
B*
3.1556e-5
RAAN
270.3463°
Arg perigee
102.4931°
Mean anomaly
257.6453°
Rev number
1,477

§ Raw data

QIANFAN-1881 69406U 26125F   26263.17911603  .00000032  00000+0  31556-4 0  99962 69406  88.9883 270.3463 0002077 102.4931 257.6453 13.51029426 14776

JSON: /api/v1/satellites/69406 · /tle

For live sub-satellite position, see the globe view (requires WebGL).

§ Visibility from observer

Set your observer location to see the next 7 days of passes ≥ 10°. The values pass through the URL so the page stays shareable.

No JS? Fill the form by hand. The geolocation button needs JavaScript.